W3EJE-13 Weather Reports


Display with metric or nautical units.
time (UTC)temp
F
wind
direction
speed
MPH
gust
MPH
rain 1hr
in
rain 24hr
in
rain mn
in
humidity
%
barometer
mb
20260906225224 74 233 0.0 0.0 0.00 0.00 0.00 68 1019.7
20260906224720 75 258 0.0 0.0 0.00 0.00 0.00 67 1019.5
20260906224216 75 215 0.0 0.0 0.00 0.00 0.00 69 1019.2
20260906223712 75 231 0.0 0.0 0.00 0.00 0.00 67 1019.1
20260906223207 75 219 0.0 0.0 0.00 0.00 0.00 66 1019.2
20260906222705 75 225 0.0 0.0 0.00 0.00 0.00 67 1019.1
20260906222204 76 250 0.0 0.0 0.00 0.00 0.00 65 1019.2
20260906221702 76 215 0.0 0.0 0.00 0.00 0.00 64 1019.2
20260906221156 77 294 0.0 0.0 0.00 0.00 0.00 61 1019.2
20260906220652 78 253 0.0 0.0 0.00 0.00 0.00 59 1019.2
20260906220148 78 225 0.0 0.0 0.00 0.00 0.00 58 1018.7
20260906215646 79 255 0.0 0.0 0.00 0.00 0.00 57 1018.9
20260906215145 78 248 0.0 0.0 0.00 0.00 0.00 58 1018.9
20260906214644 78 245 0.0 0.0 0.00 0.00 0.00 57 1019.0
20260906214138 78 225 0.0 0.0 0.00 0.00 0.00 56 1019.2
20260906213638 79 263 0.0 0.0 0.00 0.00 0.00 55 1018.8
20260906213132 80 211 0.0 0.0 0.00 0.00 0.00 56 1018.6
20260906212630 81 245 0.0 0.0 0.00 0.00 0.00 54 1019.0
20260906212126 82 245 0.0 0.0 0.00 0.00 0.00 52 1018.7
20260906211625 80 249 0.0 0.0 0.00 0.00 0.00 51 1019.2
20260906211120 78 251 0.0 0.0 0.00 0.00 0.00 53 1018.9
20260906210616 80 247 0.0 0.0 0.00 0.00 0.00 52 1019.0
20260906210111 80 247 0.0 0.0 0.00 0.00 0.00 52 1019.0
20260906205606 80 275 0.0 0.0 0.00 0.00 0.00 52 1018.8
20260906205103 81 250 0.0 0.0 0.00 0.00 0.00 54 1018.9
20260906204601 79 221 0.0 0.0 0.00 0.00 0.00 55 1018.8
20260906204057 77 261 0.0 0.0 0.00 0.00 0.00 55 1018.7
20260906203556 80 257 0.0 0.0 0.00 0.00 0.00 50 1018.8
20260906203051 80 270 0.0 0.0 0.00 0.00 0.00 51 1019.1
20260906202547 80 208 0.0 0.0 0.00 0.00 0.00 54 1018.9
20260906202042 79 228 0.0 0.0 0.00 0.00 0.00 56 1019.1
20260906201541 78 244 0.0 0.0 0.00 0.00 0.00 58 1019.1
20260906201036 78 237 0.0 0.0 0.00 0.00 0.00 58 1019.0
20260906200532 79 21 0.0 0.0 0.00 0.00 0.00 55 1019.0
20260906200028 81 257 0.0 0.0 0.00 0.00 0.00 55 1018.8
20260906195523 80 242 0.0 0.0 0.00 0.00 0.00 56 1018.9
20260906195020 79 237 0.0 0.0 0.00 0.00 0.00 58 1019.2
20260906194515 79 244 0.0 0.0 0.00 0.00 0.00 60 1018.9
20260906194011 79 245 0.0 1.0 0.00 0.00 0.00 58 1019.4
20260906193510 78 229 0.0 0.0 0.00 0.00 0.00 59 1019.1
20260906193006 77 335 0.0 0.0 0.00 0.00 0.00 60 1019.2
20260906192501 77 234 0.0 1.0 0.00 0.00 0.00 60 1019.2
20260906191959 76 245 0.0 0.0 0.00 0.00 0.00 61 1018.9
20260906191455 74 253 0.0 0.0 0.00 0.00 0.00 64 1019.1
20260906190954 75 218 0.0 0.0 0.00 0.00 0.00 63 1019.2
20260906190453 77 260 0.0 0.0 0.00 0.00 0.00 62 1019.2
20260906185948 77 247 0.0 0.0 0.00 0.00 0.00 62 1019.2
20260906185447 78 194 0.0 0.0 0.00 0.00 0.00 59 1019.1
20260906184946 77 239 0.0 0.0 0.00 0.00 0.00 62 1019.5
20260906184442 77 222 0.0 0.0 0.00 0.00 0.00 60 1019.5
20260906183937 75 355 0.0 1.0 0.00 0.00 0.00 62 1019.4
20260906183433 75 224 0.0 0.0 0.00 0.00 0.00 65 1019.5
20260906182928 76 325 0.0 0.0 0.00 0.00 0.00 63 1019.4
20260906182424 76 312 0.0 0.0 0.00 0.00 0.00 62 1019.4
20260906181919 77 136 2.0 2.0 0.00 0.00 0.00 61 1019.2
20260906181415 76 250 0.0 0.0 0.00 0.00 0.00 61 1019.2
20260906180911 75 221 0.0 0.0 0.00 0.00 0.00 66 1019.4
20260906180406 74 197 0.0 0.0 0.00 0.00 0.00 64 1019.4
20260906175903 75 205 0.0 0.0 0.00 0.00 0.00 63 1019.2
20260906175359 77 271 0.0 0.0 0.00 0.00 0.00 62 1019.2
20260906174857 76 252 0.0 0.0 0.00 0.00 0.00 62 1019.5
20260906174356 75 257 0.0 0.0 0.00 0.00 0.00 63 1019.2
20260906173851 74 260 0.0 0.0 0.00 0.00 0.00 65 1019.5
20260906173347 74 256 0.0 0.0 0.00 0.00 0.00 66 1019.5
20260906172846 75 295 0.0 0.0 0.00 0.00 0.00 63 1019.2
20260906172343 75 272 0.0 0.0 0.00 0.00 0.00 64 1019.2
20260906171843 74 262 0.0 0.0 0.00 0.00 0.00 67 1019.1
20260906171338 74 256 0.0 0.0 0.00 0.00 0.00 68 1019.5
20260906170833 74 261 0.0 0.0 0.00 0.00 0.00 70 1019.4
20260906170329 73 257 0.0 0.0 0.00 0.00 0.00 72 1019.5
20260906165826 73 259 0.0 0.0 0.00 0.00 0.00 69 1019.4
20260906165324 74 258 0.0 0.0 0.00 0.00 0.00 68 1019.4
20260906164820 74 263 0.0 0.0 0.00 0.00 0.00 69 1019.7
20260906164319 75 260 0.0 0.0 0.00 0.00 0.00 67 1019.6
20260906163815 75 271 0.0 0.0 0.00 0.00 0.00 66 1019.7
20260906163312 75 329 0.0 0.0 0.00 0.00 0.00 66 1019.6
20260906162809 74 251 0.0 0.0 0.00 0.00 0.00 66 1019.4
20260906162308 76 247 0.0 0.0 0.00 0.00 0.00 64 1019.8
20260906161803 75 243 0.0 0.0 0.00 0.00 0.00 65 1019.6
20260906161302 74 268 0.0 0.0 0.00 0.00 0.00 67 1019.7
20260906160801 75 272 0.0 0.0 0.00 0.00 0.00 67 1019.7
20260906160255 74 264 0.0 0.0 0.00 0.00 0.00 68 1019.7
20260906155753 73 275 0.0 0.0 0.00 0.00 0.00 69 1019.7
20260906155248 75 270 0.0 0.0 0.00 0.00 0.00 69 1019.9
20260906154743 74 267 0.0 0.0 0.00 0.00 0.00 68 1020.0
20260906154239 74 269 0.0 0.0 0.00 0.00 0.00 69 1019.9
20260906153737 73 274 0.0 0.0 0.00 0.00 0.00 69 1019.9
20260906153231 72 277 0.0 0.0 0.00 0.00 0.00 69 1019.9
20260906152726 70 275 0.0 0.0 0.00 0.00 0.00 76 1019.9
20260906152221 70 291 0.0 0.0 0.00 0.00 0.00 75 1019.7
20260906151715 70 275 0.0 0.0 0.00 0.00 0.00 78 1020.0
20260906151211 69 268 0.0 0.0 0.00 0.00 0.00 80 1019.7
20260906150707 69 276 0.0 0.0 0.00 0.00 0.00 82 1019.9
20260906150202 69 279 0.0 0.0 0.00 0.00 0.00 83 1019.8
20260906145701 69 277 0.0 0.0 0.00 0.00 0.00 87 1019.8
20260906145200 68 276 0.0 0.0 0.00 0.00 0.00 89 1019.8
20260906144700 67 275 0.0 0.0 0.00 0.00 0.00 91 1019.8
20260906144155 66 273 0.0 0.0 0.00 0.00 0.00 95 1019.9
20260906143649 64 272 0.0 0.0 0.00 0.00 0.00 98 1019.7
20260906143147 63 274 0.0 0.0 0.00 0.00 0.00 99 1019.8
20260906142646 63 274 0.0 0.0 0.00 0.00 0.00 99 1019.7
20260906142141 63 282 0.0 0.0 0.00 0.00 0.00 99 1019.8
20260906141640 62 273 0.0 0.0 0.00 0.00 0.00 99 1019.5
20260906141135 62 277 0.0 0.0 0.00 0.00 0.00 99 1019.6
20260906140634 61 273 0.0 0.0 0.00 0.00 0.00 99 1019.5
20260906140129 61 279 0.0 0.0 0.00 0.00 0.00 99 1019.6
20260906135626 60 283 0.0 0.0 0.00 0.00 0.00 99 1019.5
20260906135122 60 273 0.0 0.0 0.00 0.00 0.00 99 1019.5
20260906134618 59 272 0.0 0.0 0.00 0.00 0.00 99 1019.6
20260906134113 59 270 0.0 0.0 0.00 0.00 0.00 99 1019.7
20260906133609 59 277 0.0 0.0 0.00 0.00 0.00 99 1019.7
20260906133103 58 271 0.0 0.0 0.00 0.00 0.00 99 1019.6
20260906132558 58 270 0.0 0.0 0.00 0.00 0.00 99 1019.7
20260906132054 57 268 0.0 0.0 0.00 0.00 0.00 99 1019.6
20260906131549 57 270 0.0 0.0 0.00 0.00 0.00 99 1019.7
20260906131044 57 271 0.0 0.0 0.00 0.00 0.00 99 1019.6
20260906130544 57 272 0.0 0.0 0.00 0.00 0.00 99 1019.6
20260906130039 57 272 0.0 0.0 0.00 0.00 0.00 99 1019.6
20260906125537 57 271 0.0 0.0 0.00 0.00 0.00 99 1019.8
20260906125037 57 270 0.0 0.0 0.00 0.00 0.00 99 1019.6
20260906124532 57 272 0.0 0.0 0.00 0.00 0.00 99 1019.7
20260906124027 57 273 0.0 0.0 0.00 0.00 0.00 99 1019.6
20260906123526 57 270 0.0 0.0 0.00 0.00 0.00 99 1019.6
20260906123021 56 275 0.0 0.0 0.00 0.00 0.00 99 1019.8
20260906122515 56 272 0.0 0.0 0.00 0.00 0.00 99 1019.5
20260906122012 57 272 0.0 0.0 0.00 0.00 0.00 99 1019.6
20260906121507 57 271 0.0 0.0 0.00 0.00 0.00 99 1019.5
20260906121004 56 273 0.0 0.0 0.00 0.00 0.00 99 1019.4
20260906120458 56 272 0.0 0.0 0.00 0.00 0.00 99 1018.8
20260906115955 57 267 0.0 0.0 0.00 0.00 0.00 99 1019.0
20260906115450 57 269 0.0 0.0 0.00 0.00 0.00 99 1018.9
20260906114950 57 268 0.0 0.0 0.00 0.00 0.00 99 1018.8
20260906114445 57 270 0.0 0.0 0.00 0.00 0.00 99 1018.9
20260906113941 56 270 0.0 0.0 0.00 0.00 0.00 99 1018.9
20260906113439 56 268 0.0 0.0 0.00 0.00 0.00 99 1018.7
20260906112935 56 270 0.0 0.0 0.00 0.00 0.00 99 1018.8
20260906112430 56 270 0.0 0.0 0.00 0.00 0.00 99 1018.6
20260906111926 56 270 0.0 0.0 0.00 0.00 0.00 99 1018.6
20260906111425 56 270 0.0 0.0 0.00 0.00 0.00 99 1018.5
20260906110920 56 268 0.0 0.0 0.00 0.00 0.00 99 1018.6
20260906110416 56 267 0.0 0.0 0.00 0.00 0.00 99 1018.7
20260906105915 56 267 0.0 0.0 0.00 0.00 0.00 99 1018.2
20260906105410 56 267 0.0 0.0 0.00 0.00 0.00 99 1018.3
20260906104906 56 270 0.0 0.0 0.00 0.00 0.00 99 1018.2
20260906104405 56 269 0.0 0.0 0.00 0.00 0.00 99 1018.2
20260906103904 56 267 0.0 0.0 0.00 0.00 0.00 99 1018.3
20260906103402 56 267 0.0 0.0 0.00 0.00 0.00 99 1018.2
20260906102858 56 267 0.0 0.0 0.00 0.00 0.00 99 1017.9
20260906102357 56 267 0.0 0.0 0.00 0.00 0.00 99 1018.1
20260906101852 56 267 0.0 0.0 0.00 0.00 0.00 99 1018.3
20260906101347 57 268 0.0 0.0 0.00 0.00 0.00 99 1018.3
20260906100843 57 269 0.0 0.0 0.00 0.00 0.00 99 1018.0
20260906100342 57 269 0.0 0.0 0.00 0.00 0.00 99 1017.8
20260906095837 57 268 0.0 0.0 0.00 0.00 0.00 99 1018.0
20260906095333 58 268 0.0 0.0 0.00 0.00 0.00 99 1018.1
20260906094832 58 268 0.0 0.0 0.00 0.00 0.00 99 1018.0
20260906094327 58 267 0.0 0.0 0.00 0.00 0.00 99 1018.1
20260906093823 58 270 0.0 0.0 0.00 0.00 0.00 99 1018.1
20260906093319 58 272 0.0 0.0 0.00 0.00 0.00 99 1018.0
20260906092808 58 269 0.0 0.0 0.00 0.00 0.00 99 1017.9
20260906092305 58 270 0.0 0.0 0.00 0.00 0.00 99 1018.2
20260906091758 58 255 0.0 0.0 0.00 0.00 0.00 99 1017.8
20260906091254 58 255 0.0 0.0 0.00 0.00 0.00 99 1018.0
20260906090750 58 255 0.0 0.0 0.00 0.00 0.00 99 1017.9
20260906090249 58 255 0.0 0.0 0.00 0.00 0.00 99 1017.7
20260906085748 59 256 0.0 0.0 0.00 0.00 0.00 99 1018.0
20260906085248 59 255 0.0 0.0 0.00 0.00 0.00 99 1017.8
20260906084743 59 255 0.0 0.0 0.00 0.00 0.00 99 1017.8
20260906084242 59 255 0.0 0.0 0.00 0.00 0.00 99 1017.6
20260906083737 59 255 0.0 0.0 0.00 0.00 0.00 99 1017.7
20260906083233 59 255 0.0 0.0 0.00 0.00 0.00 99 1017.6
20260906082728 59 255 0.0 0.0 0.00 0.00 0.00 99 1017.4
20260906082223 59 254 0.0 0.0 0.00 0.00 0.00 99 1017.3
20260906081719 59 255 0.0 0.0 0.00 0.00 0.00 99 1017.4
20260906081214 59 255 0.0 0.0 0.00 0.00 0.00 99 1017.7
20260906080710 59 256 0.0 0.0 0.00 0.00 0.00 99 1017.3
20260906080206 59 255 0.0 0.0 0.00 0.00 0.00 99 1017.4
20260906075700 59 255 0.0 0.0 0.00 0.00 0.00 99 1017.4
20260906075155 59 255 0.0 0.0 0.00 0.00 0.00 99 1017.4
20260906074650 59 255 0.0 0.0 0.00 0.00 0.00 99 1017.6
20260906074149 60 255 0.0 0.0 0.00 0.00 0.00 99 1017.7
20260906073644 60 254 0.0 0.0 0.00 0.00 0.00 99 1017.4
20260906073140 60 255 0.0 0.0 0.00 0.00 0.00 99 1017.3
20260906072635 60 253 0.0 0.0 0.00 0.00 0.00 99 1017.3
20260906072130 60 253 0.0 0.0 0.00 0.00 0.00 99 1017.3
20260906071626 60 255 0.0 0.0 0.00 0.00 0.00 99 1017.3
20260906071121 60 255 0.0 0.0 0.00 0.00 0.00 99 1017.4
20260906070618 60 255 0.0 0.0 0.00 0.00 0.00 99 1017.3
20260906070113 60 255 0.0 0.0 0.00 0.00 0.00 99 1017.6
20260906065612 60 255 0.0 0.0 0.00 0.00 0.00 99 1017.4
20260906065108 60 255 0.0 0.0 0.00 0.00 0.00 99 1017.3
20260906064604 60 255 0.0 0.0 0.00 0.00 0.00 99 1017.6
20260906064058 60 255 0.0 0.0 0.00 0.00 0.00 99 1017.2
20260906063554 60 255 0.0 0.0 0.00 0.00 0.00 99 1017.3
20260906063049 60 254 0.0 0.0 0.00 0.00 0.00 99 1017.2
20260906062545 60 255 0.0 0.0 0.00 0.00 0.00 99 1017.0
20260906062038 60 255 0.0 0.0 0.00 0.00 0.00 99 1017.3
20260906061535 60 255 0.0 0.0 0.00 0.00 0.00 99 1017.3
20260906061034 60 255 0.0 0.0 0.00 0.00 0.00 99 1017.3
20260906060531 60 255 0.0 0.0 0.00 0.00 0.00 99 1017.2
20260906060028 60 254 0.0 0.0 0.00 0.00 0.00 99 1017.0
20260906055523 60 254 0.0 0.0 0.00 0.00 0.00 99 1017.3
20260906055019 60 254 0.0 0.0 0.00 0.00 0.00 99 1017.1
20260906054519 60 255 0.0 0.0 0.00 0.00 0.00 99 1016.9
20260906054014 60 255 0.0 0.0 0.00 0.00 0.00 99 1017.0
20260906053510 61 255 0.0 0.0 0.00 0.00 0.00 99 1017.3
20260906053005 61 255 0.0 0.0 0.00 0.00 0.00 99 1017.2
20260906052501 61 255 0.0 0.0 0.00 0.00 0.00 99 1017.1
20260906051958 61 255 0.0 0.0 0.00 0.00 0.00 99 1017.3
20260906051453 61 254 0.0 0.0 0.00 0.00 0.00 99 1017.2
20260906050949 61 254 0.0 0.0 0.00 0.00 0.00 99 1017.4
20260906050448 61 254 0.0 0.0 0.00 0.00 0.00 99 1017.4
20260906045948 61 254 0.0 0.0 0.00 0.00 0.00 99 1017.2
20260906045447 61 254 0.0 0.0 0.00 0.00 0.00 99 1017.4
20260906044943 61 255 0.0 0.0 0.00 0.00 0.00 99 1017.3
20260906044438 61 254 0.0 0.0 0.00 0.00 0.00 99 1017.4
20260906043933 61 254 0.0 0.0 0.00 0.00 0.00 99 1017.3
20260906043429 61 254 0.0 0.0 0.00 0.00 0.00 99 1017.1
20260906042925 61 254 0.0 0.0 0.00 0.00 0.00 99 1017.3
20260906042424 62 253 0.0 0.0 0.00 0.00 0.00 99 1017.4
20260906041919 62 253 0.0 0.0 0.00 0.00 0.00 99 1017.2
20260906041415 62 253 0.0 0.0 0.00 0.00 0.00 99 1017.3
20260906040915 62 254 0.0 0.0 0.00 0.00 0.00 99 1017.3
20260906040410 62 235 0.0 0.0 0.00 0.00 0.00 99 1017.4
20260906035905 62 237 0.0 0.0 0.00 0.06 0.06 99 1017.4
20260906035401 62 242 0.0 0.0 0.00 0.06 0.06 99 1017.6
20260906034856 62 256 0.0 0.0 0.00 0.06 0.06 99 1017.6
20260906034350 62 260 0.0 0.0 0.00 0.06 0.06 99 1017.4
20260906033846 62 253 0.0 0.0 0.00 0.06 0.06 99 1017.6
20260906033345 62 253 0.0 0.0 0.00 0.06 0.06 99 1017.8
20260906032842 63 253 0.0 0.0 0.00 0.06 0.06 99 1017.8
20260906032337 62 249 0.0 0.0 0.00 0.06 0.06 99 1017.8
20260906031832 62 253 0.0 0.0 0.00 0.06 0.06 99 1017.6
20260906031328 63 253 0.0 0.0 0.00 0.06 0.06 99 1017.8
20260906030827 63 247 0.0 0.0 0.00 0.06 0.06 99 1017.4
20260906030323 63 247 0.0 0.0 0.00 0.06 0.06 99 1017.4
20260906025817 63 250 0.0 0.0 0.00 0.06 0.06 99 1017.4
20260906025311 63 241 0.0 0.0 0.00 0.06 0.06 99 1017.7
20260906024810 63 245 0.0 0.0 0.00 0.06 0.06 99 1017.6
20260906024309 63 248 0.0 0.0 0.00 0.06 0.06 99 1017.3
20260906023805 63 254 0.0 0.0 0.00 0.06 0.06 99 1017.6
20260906023301 63 254 0.0 0.0 0.00 0.06 0.06 99 1017.3
20260906022756 63 254 0.0 0.0 0.00 0.06 0.06 99 1017.2
20260906022251 63 254 0.0 0.0 0.00 0.06 0.06 99 1017.4
20260906021747 64 255 0.0 0.0 0.00 0.06 0.06 99 1016.9
20260906021246 64 255 0.0 0.0 0.00 0.06 0.06 99 1016.9
20260906020741 64 256 0.0 0.0 0.00 0.06 0.06 99 1017.0
20260906020241 64 256 0.0 0.0 0.00 0.06 0.06 99 1017.1
20260906015735 65 256 0.0 0.0 0.00 0.06 0.06 99 1016.9
20260906015234 65 250 0.0 0.0 0.00 0.06 0.06 99 1016.8
20260906014729 65 250 0.0 0.0 0.00 0.06 0.06 99 1016.7
20260906014225 65 249 0.0 0.0 0.00 0.06 0.06 99 1016.9
20260906013721 66 253 0.0 0.0 0.00 0.06 0.06 99 1016.9
20260906013220 66 247 0.0 0.0 0.00 0.06 0.06 99 1016.9
20260906012715 66 252 0.0 0.0 0.00 0.06 0.06 99 1016.8
20260906012210 66 249 0.0 0.0 0.00 0.06 0.06 99 1016.9
20260906011706 66 252 0.0 0.0 0.00 0.06 0.06 99 1017.2
20260906011200 66 254 0.0 0.0 0.00 0.06 0.06 99 1016.8
20260906010655 67 247 0.0 0.0 0.00 0.06 0.06 99 1016.5
20260906010152 67 247 0.0 0.0 0.00 0.06 0.06 99 1016.5
20260906005651 67 247 0.0 0.0 0.00 0.06 0.06 99 1016.6
20260906005150 67 248 0.0 0.0 0.00 0.06 0.06 98 1016.7
20260906004649 68 250 0.0 0.0 0.00 0.06 0.06 98 1016.5
20260906004145 68 253 0.0 0.0 0.00 0.06 0.06 98 1016.7
20260906003640 68 251 0.0 0.0 0.00 0.06 0.06 97 1016.4
20260906003136 68 245 0.0 0.0 0.00 0.06 0.06 96 1016.5
20260906002630 68 249 0.0 0.0 0.00 0.06 0.06 95 1016.4
20260906002125 69 250 0.0 0.0 0.00 0.06 0.06 95 1016.3
20260906001621 69 255 0.0 0.0 0.00 0.06 0.06 94 1016.4
20260906001120 70 246 0.0 0.0 0.00 0.06 0.06 93 1016.5
20260906000616 70 248 0.0 0.0 0.00 0.06 0.06 92 1016.3
20260906000112 70 251 0.0 0.0 0.00 0.06 0.06 90 1016.2
20260905235610 70 252 0.0 0.0 0.00 0.06 0.06 90 1016.4
20260905235106 71 251 0.0 0.0 0.00 0.06 0.06 88 1016.0
20260905234601 71 252 0.0 0.0 0.00 0.06 0.06 87 1016.3
20260905234056 72 251 0.0 0.0 0.00 0.06 0.06 86 1016.3
20260905233556 72 259 0.0 0.0 0.00 0.06 0.06 85 1016.2
20260905233051 72 255 0.0 0.0 0.00 0.06 0.06 85 1016.3
20260905232546 73 258 0.0 0.0 0.00 0.06 0.06 84 1016.1
20260905232042 73 270 0.0 0.0 0.00 0.06 0.06 82 1015.9
20260905231536 74 259 0.0 0.0 0.00 0.06 0.06 82 1015.7
20260905231033 74 260 0.0 0.0 0.00 0.06 0.06 81 1016.2
20260905230532 74 260 2.0 2.0 0.00 0.06 0.06 81 1015.9
20260905230031 74 295 3.0 3.0 0.00 0.06 0.06 81 1015.7
20260905225525 74 297 3.0 3.0 0.00 0.06 0.06 80 1015.9